This is the latest recevied weather packets stored in our database for station/object HB9HFD-13. If no packets are shown the sender has not sent any weather packets the latest 10 day(s).
| Time | Temp. | Humidity | Pressure | Rain* | Wind** | Luminosity | Snow |
|---|---|---|---|---|---|---|---|
| 1787592073 | 26.11° C | 53% | 1008.2 hPa | 0 mm | - | - | - |
| 1787591773 | 26.67° C | 51% | 1008.3 hPa | 0 mm | - | - | - |
| 1787591473 | 26.67° C | 50% | 1008.3 hPa | 0 mm | - | - | - |
| 1787591172 | 27.22° C | 49% | 1008.4 hPa | 0 mm | - | - | - |
| 1787590872 | 27.22° C | 48% | 1008.7 hPa | 0 mm | - | - | - |
| 1787590572 | 27.78° C | 47% | 1008.7 hPa | 0 mm | - | - | - |
| 1787590272 | 28.33° C | 45% | 1008.8 hPa | 0 mm | - | - | - |
| 1787589972 | 28.89° C | 45% | 1008.9 hPa | 0 mm | - | - | - |
| 1787589671 | 28.89° C | 44% | 1009 hPa | 0 mm | - | - | - |
| 1787589371 | 28.89° C | 44% | 1009.1 hPa | 0 mm | - | - | - |
| 1787589071 | 28.89° C | 42% | 1009.2 hPa | 0 mm | - | - | - |
| 1787588770 | 28.89° C | 42% | 1009 hPa | 0 mm | - | - | - |
| 1787588470 | 28.89° C | 43% | 1009.1 hPa | 0 mm | - | - | - |
| 1787588170 | 28.89° C | 42% | 1009.2 hPa | 0 mm | - | - | - |
| 1787587870 | 28.89° C | 43% | 1009.2 hPa | 0 mm | - | - | - |
| 1787587569 | 28.33° C | 43% | 1009.1 hPa | 0 mm | - | - | - |
| 1787587269 | 28.89° C | 42% | 1009.3 hPa | 0 mm | - | - | - |
| 1787586969 | 28.89° C | 41% | 1009.3 hPa | 0 mm | - | - | - |
| 1787586669 | 29.44° C | 40% | 1009.2 hPa | 0 mm | - | - | - |
| 1787586368 | 29.44° C | 43% | 1009.3 hPa | 0 mm | - | - | - |
| 1787586068 | 28.89° C | 40% | 1009.4 hPa | 0 mm | - | - | - |
| 1787585768 | 28.89° C | 39% | 1009.4 hPa | 0 mm | - | - | - |
| 1787585467 | 28.89° C | 41% | 1009.5 hPa | 0 mm | - | - | - |
| 1787585167 | 28.89° C | 40% | 1009.6 hPa | 0 mm | - | - | - |
| 1787584867 | 28.89° C | 39% | 1009.7 hPa | 0 mm | - | - | - |
* Rain latest hour (hover to see other rain measurements)
** Current wind speed in m/s (hover to see current wind gust speed)